Weather History for Kozani, Greece

Change the Weather History Date:

Wednesday, May 22, 2013

  Actual Average Record
Temperature  
Mean Temperature 70 °F -  
Max Temperature 82 °F - - ()
Min Temperature 59 °F - - ()
Cooling Degree Days 6    
Growing Degree Days 20 (Base 50)    
Moisture  
Dew Point 47 °F    
Average Humidity 49    
Maximum Humidity 72    
Minimum Humidity 28    
Precipitation  
Precipitation 0.00 in - - ()
Sea Level Pressure  
Sea Level Pressure 29.84 in    
Wind  
Wind Speed 3 mph ()    
Max Wind Speed 9 mph    
Max Gust Speed -    
Visibility 6.2 miles    
Events Rain    
T = Trace of Precipitation, MM = Missing Value Source: Averaged Metar Reports

Daily Weather History Graph

Daily Weather History Graph

Search for Another Location

Airport:

Trip Planner

Search our weather history database for the weather conditions in past years. The results will help you decide how hot, cold, wet, or windy it might be!

Date:

Astronomy

May. 22, 2013 Rise Set
Actual Time 6:10 AM EEST 8:48 PM EEST
Civil Twilight 5:39 AM EEST 9:19 PM EEST
Nautical Twilight 5:00 AM EEST 9:59 PM EEST
Astronomical Twilight 4:15 AM EEST 10:43 PM EEST
Moon 5:48 PM EEST (5/22) 4:03 AM EEST (5/22)
Length of Visible Light 15h 40m
Length of Day
14h 37m
Waxing Gibbous, 89% of the Moon is Illuminated
May 22
Waxing Gibbous
May 25
Full
May 31
Last Quarter
Jun 8
New
Jun 16
First Quarter

Hourly Weather History & Observations

Time (EEST) Temp. Dew Point Humidity Pressure Visibility Wind Dir Wind Speed Gust Speed Precip Events Conditions
12:20 AM 62.6 °F 41.0 °F 45% 29.95 in - Variable 3.5 mph - N/A   Unknown
12:50 AM 60.8 °F 41.0 °F 48% 29.95 in - Variable 3.5 mph - N/A   Unknown
1:20 AM 60.8 °F 41.0 °F 48% 29.95 in - Variable 2.3 mph - N/A   Unknown
1:50 AM 60.8 °F 41.0 °F 48% 29.95 in - NNW 4.6 mph - N/A   Unknown
2:20 AM 60.8 °F 41.0 °F 48% 29.92 in - North 4.6 mph - N/A   Unknown
2:50 AM 59.0 °F 41.0 °F 51% 29.92 in - NNE 4.6 mph - N/A   Unknown
3:20 AM 59.0 °F 42.8 °F 55% 29.92 in - North 5.8 mph - N/A   Unknown
3:50 AM 60.8 °F 41.0 °F 48% 29.92 in - North 5.8 mph - N/A   Unknown
4:20 AM 60.8 °F 42.8 °F 52% 29.89 in - Variable 3.5 mph - N/A   Unknown
4:50 AM 60.8 °F 42.8 °F 52% 29.89 in - North 5.8 mph - N/A   Unknown
5:20 AM 62.6 °F 44.6 °F 52% 29.89 in - Variable 3.5 mph - N/A Rain Light Rain
5:50 AM 60.8 °F 46.4 °F 59% 29.86 in - Variable 3.5 mph - N/A Rain Light Rain
6:20 AM 62.6 °F 44.6 °F 52% 29.86 in - Variable 3.5 mph - N/A Rain Light Rain
6:50 AM 62.6 °F 46.4 °F 55% 29.86 in - Variable 1.2 mph - N/A Rain Light Rain
7:20 AM 60.8 °F 46.4 °F 59% 29.89 in - Variable 1.2 mph - N/A   Unknown
7:50 AM 62.6 °F 46.4 °F 55% 29.89 in 6.2 mi Calm Calm - N/A   Mostly Cloudy
8:50 AM 71.6 °F 42.8 °F 35% 29.89 in 6.2 mi Calm Calm - N/A   Mostly Cloudy
9:50 AM 73.4 °F 41.0 °F 31% 29.89 in 6.2 mi ESE 4.6 mph - N/A   Mostly Cloudy
10:50 AM 75.2 °F 42.8 °F 31% 29.89 in 6.2 mi SSE 5.8 mph - N/A   Mostly Cloudy
11:50 AM 78.8 °F 44.6 °F 30% 29.89 in 6.2 mi Calm Calm - N/A   Mostly Cloudy
12:50 PM 80.6 °F 44.6 °F 28% 29.86 in 6.2 mi Calm Calm - N/A   Partly Cloudy
1:50 PM 82.4 °F 46.4 °F 28% 29.86 in 6.2 mi SSE 5.8 mph - N/A   Partly Cloudy
2:50 PM 82.4 °F 46.4 °F 28% 29.83 in 6.2 mi ESE 6.9 mph - N/A   Mostly Cloudy
3:50 PM 80.6 °F 48.2 °F 32% 29.80 in 6.2 mi SE 9.2 mph - N/A   Mostly Cloudy
4:50 PM 77.0 °F 53.6 °F 44% 29.80 in 6.2 mi West 6.9 mph - N/A   Mostly Cloudy
5:50 PM 75.2 °F 57.2 °F 53% 29.77 in 6.2 mi North 5.8 mph - N/A   Mostly Cloudy
6:50 PM 75.2 °F 55.4 °F 50% 29.77 in 6.2 mi Calm Calm - N/A   Mostly Cloudy
7:50 PM 73.4 °F 59.0 °F 61% 29.74 in 6.2 mi Calm Calm - N/A   Mostly Cloudy
8:50 PM 69.8 °F 53.6 °F 56% 29.71 in 6.2 mi Calm Calm - N/A   Mostly Cloudy
9:20 PM 68.0 °F 53.6 °F 60% 29.71 in - SW 4.6 mph - N/A   Unknown
9:50 PM 68.0 °F 55.4 °F 64% 29.71 in - Variable 2.3 mph - N/A   Unknown
10:20 PM 66.2 °F 55.4 °F 68% 29.71 in - Variable 2.3 mph - N/A   Unknown
10:50 PM 69.8 °F 51.8 °F 53% 29.71 in - Variable 1.2 mph - N/A   Unknown
11:20 PM 66.2 °F 53.6 °F 64% 29.68 in - Calm Calm - N/A   Unknown
11:50 PM 62.6 °F 53.6 °F 72% 29.68 in - Calm Calm - N/A   Unknown